Time,TemperatureF,DewpointF,PressureIn,WindDirection,WindDirectionDegrees,WindSpeedMPH,WindSpeedGustMPH,Humidity,HourlyPrecipIn,Conditions,Clouds,dailyrainin,SoftwareType,DateUTC
2013-04-22 00:00:00,41.3,26.8,30.62,ESE,111,0.0,0.0,56,0.00,,,0.00,VWS V14.01,2013-04-22 04:00:00,
2013-04-22 00:01:00,41.3,26.8,30.62,ESE,111,0.0,0.0,56,0.00,,,0.00,VWS V14.01,2013-04-22 04:01:00,
2013-04-22 00:06:00,41.0,25.6,30.62,ESE,111,0.0,0.0,54,0.00,,,0.00,VWS V14.01,2013-04-22 04:06:00,
2013-04-22 00:11:00,41.0,26.1,30.62,ESE,111,0.0,0.0,55,0.00,,,0.00,VWS V14.01,2013-04-22 04:11:00,
2013-04-22 00:15:00,40.8,27.6,30.62,ESE,111,0.0,1.0,59,0.00,,,0.00,VWS V14.01,2013-04-22 04:15:00,
2013-04-22 00:16:00,40.8,27.6,30.62,ESE,111,0.0,0.0,59,0.00,,,0.00,VWS V14.01,2013-04-22 04:16:00,
2013-04-22 00:21:00,40.7,27.5,30.62,ESE,111,0.0,0.0,59,0.00,,,0.00,VWS V14.01,2013-04-22 04:21:00,
2013-04-22 00:26:00,40.5,26.5,30.62,ESE,111,0.0,0.0,57,0.00,,,0.00,VWS V14.01,2013-04-22 04:26:00,
2013-04-22 00:30:00,40.4,27.6,30.62,ESE,111,0.0,0.0,60,0.00,,,0.00,VWS V14.01,2013-04-22 04:30:00,
2013-04-22 00:31:00,40.4,27.6,30.62,ESE,111,0.0,0.0,60,0.00,,,0.00,VWS V14.01,2013-04-22 04:31:00,
2013-04-22 00:36:00,40.3,27.1,30.62,ESE,111,0.0,0.0,59,0.00,,,0.00,VWS V14.01,2013-04-22 04:36:00,
2013-04-22 00:41:00,40.1,27.4,30.62,ESE,111,0.0,0.0,60,0.00,,,0.00,VWS V14.01,2013-04-22 04:41:00,
2013-04-22 00:45:00,40.1,27.8,30.62,ESE,111,0.0,0.0,61,0.00,,,0.00,VWS V14.01,2013-04-22 04:45:00,
2013-04-22 00:46:00,40.0,27.6,30.62,ESE,111,0.0,0.0,61,0.00,,,0.00,VWS V14.01,2013-04-22 04:46:00,
2013-04-22 00:51:00,40.0,28.4,30.62,ESE,111,0.0,0.0,63,0.00,,,0.00,VWS V14.01,2013-04-22 04:51:00,
2013-04-22 00:56:00,39.8,28.2,30.62,ESE,111,0.0,0.0,63,0.00,,,0.00,VWS V14.01,2013-04-22 04:56:00,
2013-04-22 01:00:00,39.7,28.1,30.62,ESE,111,0.0,0.0,63,0.00,,,0.00,VWS V14.01,2013-04-22 05:00:00,
2013-04-22 01:01:00,39.7,28.1,30.62,ESE,111,0.0,0.0,63,0.00,,,0.00,VWS V14.01,2013-04-22 05:01:00,
2013-04-22 01:06:00,39.5,28.7,30.62,ESE,111,0.0,0.0,65,0.00,,,0.00,VWS V14.01,2013-04-22 05:06:00,
2013-04-22 01:11:00,39.4,29.0,30.62,ESE,111,0.0,0.0,66,0.00,,,0.00,VWS V14.01,2013-04-22 05:11:00,
2013-04-22 01:15:00,39.3,28.5,30.62,ESE,111,0.0,0.0,65,0.00,,,0.00,VWS V14.01,2013-04-22 05:15:00,
2013-04-22 01:16:00,39.3,28.5,30.62,ESE,111,0.0,0.0,65,0.00,,,0.00,VWS V14.01,2013-04-22 05:16:00,
2013-04-22 01:21:00,39.1,28.3,30.62,ESE,111,0.0,0.0,65,0.00,,,0.00,VWS V14.01,2013-04-22 05:21:00,
2013-04-22 01:26:00,39.0,27.9,30.62,ESE,111,0.0,0.0,64,0.00,,,0.00,VWS V14.01,2013-04-22 05:26:00,
2013-04-22 01:30:00,38.8,28.1,30.62,ESE,111,0.0,0.0,65,0.00,,,0.00,VWS V14.01,2013-04-22 05:30:00,
2013-04-22 01:31:00,38.8,28.1,30.62,ESE,111,0.0,0.0,65,0.00,,,0.00,VWS V14.01,2013-04-22 05:31:00,
2013-04-22 01:36:00,38.8,28.1,30.62,ESE,111,0.0,0.0,65,0.00,,,0.00,VWS V14.01,2013-04-22 05:36:00,
2013-04-22 01:41:00,38.7,28.3,30.62,ESE,111,0.0,0.0,66,0.00,,,0.00,VWS V14.01,2013-04-22 05:41:00,
2013-04-22 01:45:00,38.7,28.3,30.61,ESE,111,0.0,0.0,66,0.00,,,0.00,VWS V14.01,2013-04-22 05:45:00,
2013-04-22 01:46:00,38.7,28.3,30.61,ESE,111,0.0,0.0,66,0.00,,,0.00,VWS V14.01,2013-04-22 05:46:00,
2013-04-22 01:51:00,38.7,28.0,30.61,ESE,111,0.0,0.0,65,0.00,,,0.00,VWS V14.01,2013-04-22 05:51:00,
2013-04-22 01:56:00,38.7,28.7,30.61,ESE,111,0.0,0.0,67,0.00,,,0.00,VWS V14.01,2013-04-22 05:56:00,
2013-04-22 02:00:00,38.5,28.1,30.61,ESE,111,0.0,0.0,66,0.00,,,0.00,VWS V14.01,2013-04-22 06:00:00,
2013-04-22 02:01:00,38.5,28.1,30.61,ESE,111,0.0,0.0,66,0.00,,,0.00,VWS V14.01,2013-04-22 06:01:00,
2013-04-22 02:06:00,38.5,28.5,30.61,ESE,111,0.0,0.0,67,0.00,,,0.00,VWS V14.01,2013-04-22 06:06:00,
2013-04-22 02:11:00,38.5,28.9,30.61,ESE,111,0.0,0.0,68,0.00,,,0.00,VWS V14.01,2013-04-22 06:11:00,
2013-04-22 02:15:00,38.4,28.4,30.61,ESE,111,0.0,0.0,67,0.00,,,0.00,VWS V14.01,2013-04-22 06:15:00,
2013-04-22 02:16:00,38.4,28.4,30.61,ESE,111,0.0,0.0,67,0.00,,,0.00,VWS V14.01,2013-04-22 06:16:00,
2013-04-22 02:21:00,38.2,28.9,30.61,ESE,111,0.0,0.0,69,0.00,,,0.00,VWS V14.01,2013-04-22 06:21:00,
2013-04-22 02:26:00,38.1,28.5,30.61,ESE,111,0.0,0.0,68,0.00,,,0.00,VWS V14.01,2013-04-22 06:26:00,
2013-04-22 02:30:00,38.0,28.4,30.61,ESE,111,0.0,0.0,68,0.00,,,0.00,VWS V14.01,2013-04-22 06:30:00,
2013-04-22 02:31:00,38.0,28.4,30.61,ESE,111,0.0,0.0,68,0.00,,,0.00,VWS V14.01,2013-04-22 06:31:00,
2013-04-22 02:36:00,37.8,28.6,30.61,ESE,111,0.0,0.0,69,0.00,,,0.00,VWS V14.01,2013-04-22 06:36:00,
2013-04-22 02:41:00,37.7,28.8,30.61,ESE,111,0.0,0.0,70,0.00,,,0.00,VWS V14.01,2013-04-22 06:41:00,
2013-04-22 02:45:00,37.7,28.8,30.61,ESE,111,0.0,0.0,70,0.00,,,0.00,VWS V14.01,2013-04-22 06:45:00,
2013-04-22 02:46:00,37.7,28.8,30.61,ESE,111,0.0,0.0,70,0.00,,,0.00,VWS V14.01,2013-04-22 06:46:00,
2013-04-22 02:51:00,37.5,29.0,30.61,ESE,111,0.0,0.0,71,0.00,,,0.00,VWS V14.01,2013-04-22 06:51:00,
2013-04-22 02:56:00,37.5,29.0,30.61,ESE,111,0.0,0.0,71,0.00,,,0.00,VWS V14.01,2013-04-22 06:56:00,
2013-04-22 03:00:00,37.4,28.9,30.60,ESE,111,0.0,0.0,71,0.00,,,0.00,VWS V14.01,2013-04-22 07:00:00,
2013-04-22 03:01:00,37.4,28.9,30.60,ESE,111,0.0,0.0,71,0.00,,,0.00,VWS V14.01,2013-04-22 07:01:00,
2013-04-22 03:06:00,37.2,28.3,30.60,ESE,111,0.0,0.0,70,0.00,,,0.00,VWS V14.01,2013-04-22 07:06:00,
2013-04-22 03:11:00,37.1,28.2,30.60,ESE,111,0.0,0.0,70,0.00,,,0.00,VWS V14.01,2013-04-22 07:11:00,
2013-04-22 03:15:00,37.0,28.5,30.60,ESE,111,0.0,0.0,71,0.00,,,0.00,VWS V14.01,2013-04-22 07:15:00,
2013-04-22 03:16:00,37.0,28.5,30.60,ESE,111,0.0,0.0,71,0.00,,,0.00,VWS V14.01,2013-04-22 07:16:00,
2013-04-22 03:21:00,37.0,28.8,30.60,ESE,111,0.0,0.0,72,0.00,,,0.00,VWS V14.01,2013-04-22 07:21:00,
2013-04-22 03:26:00,36.8,28.6,30.60,ESE,111,0.0,0.0,72,0.00,,,0.00,VWS V14.01,2013-04-22 07:26:00,
2013-04-22 03:30:00,36.8,28.6,30.60,ESE,111,0.0,0.0,72,0.00,,,0.00,VWS V14.01,2013-04-22 07:30:00,
2013-04-22 03:31:00,36.8,28.6,30.60,ESE,111,0.0,0.0,72,0.00,,,0.00,VWS V14.01,2013-04-22 07:31:00,
2013-04-22 03:36:00,36.7,28.5,30.60,ESE,111,0.0,0.0,72,0.00,,,0.00,VWS V14.01,2013-04-22 07:36:00,
2013-04-22 03:41:00,36.5,28.4,30.60,ESE,111,0.0,0.0,72,0.00,,,0.00,VWS V14.01,2013-04-22 07:41:00,
2013-04-22 03:45:00,36.5,28.4,30.61,ESE,111,0.0,0.0,72,0.00,,,0.00,VWS V14.01,2013-04-22 07:45:00,
2013-04-22 03:46:00,36.5,28.4,30.61,ESE,111,0.0,0.0,72,0.00,,,0.00,VWS V14.01,2013-04-22 07:46:00,
2013-04-22 03:51:00,36.4,28.6,30.61,ESE,111,0.0,0.0,73,0.00,,,0.00,VWS V14.01,2013-04-22 07:51:00,
2013-04-22 03:56:00,36.2,28.4,30.61,ESE,111,0.0,0.0,73,0.00,,,0.00,VWS V14.01,2013-04-22 07:56:00,
2013-04-22 04:00:00,36.1,28.3,30.61,ESE,111,0.0,0.0,73,0.00,,,0.00,VWS V14.01,2013-04-22 08:00:00,
2013-04-22 04:05:00,36.0,28.2,30.61,ESE,111,0.0,0.0,73,0.00,,,0.00,VWS V14.01,2013-04-22 08:05:00,
2013-04-22 04:10:00,35.8,28.3,30.61,ESE,111,0.0,0.0,74,0.00,,,0.00,VWS V14.01,2013-04-22 08:10:00,
2013-04-22 04:15:00,35.7,28.2,30.61,ESE,111,0.0,0.0,74,0.00,,,0.00,VWS V14.01,2013-04-22 08:15:00,
2013-04-22 04:20:00,35.5,28.4,30.61,ESE,111,0.0,0.0,75,0.00,,,0.00,VWS V14.01,2013-04-22 08:20:00,
2013-04-22 04:25:00,35.4,28.3,30.61,ESE,111,0.0,0.0,75,0.00,,,0.00,VWS V14.01,2013-04-22 08:25:00,
2013-04-22 04:30:00,35.4,28.3,30.61,ESE,111,0.0,0.0,75,0.00,,,0.00,VWS V14.01,2013-04-22 08:30:00,
2013-04-22 04:35:00,35.2,28.1,30.61,ESE,111,0.0,0.0,75,0.00,,,0.00,VWS V14.01,2013-04-22 08:35:00,
2013-04-22 04:40:00,35.1,28.3,30.61,ESE,111,0.0,0.0,76,0.00,,,0.00,VWS V14.01,2013-04-22 08:40:00,
2013-04-22 04:45:00,34.9,28.1,30.62,ESE,111,0.0,0.0,76,0.00,,,0.00,VWS V14.01,2013-04-22 08:45:00,
2013-04-22 04:50:00,34.8,28.0,30.62,ESE,111,0.0,0.0,76,0.00,,,0.00,VWS V14.01,2013-04-22 08:50:00,
2013-04-22 04:55:00,34.6,27.8,30.62,ESE,111,0.0,0.0,76,0.00,,,0.00,VWS V14.01,2013-04-22 08:55:00,
2013-04-22 05:00:00,34.6,28.1,30.62,ESE,111,0.0,0.0,77,0.00,,,0.00,VWS V14.01,2013-04-22 09:00:00,
2013-04-22 05:05:00,34.5,28.0,30.62,ESE,111,0.0,0.0,77,0.00,,,0.00,VWS V14.01,2013-04-22 09:05:00,
2013-04-22 05:10:00,34.5,28.0,30.62,ESE,111,0.0,0.0,77,0.00,,,0.00,VWS V14.01,2013-04-22 09:10:00,
2013-04-22 05:15:00,34.3,27.9,30.63,ESE,111,0.0,0.0,77,0.00,,,0.00,VWS V14.01,2013-04-22 09:15:00,
2013-04-22 05:20:00,34.3,28.2,30.63,ESE,111,0.0,0.0,78,0.00,,,0.00,VWS V14.01,2013-04-22 09:20:00,
2013-04-22 05:25:00,34.3,28.5,30.63,ESE,111,0.0,0.0,79,0.00,,,0.00,VWS V14.01,2013-04-22 09:25:00,
2013-04-22 05:30:00,34.2,28.4,30.63,ESE,111,0.0,0.0,79,0.00,,,0.00,VWS V14.01,2013-04-22 09:30:00,
2013-04-22 05:35:00,34.2,28.4,30.63,ESE,111,0.0,0.0,79,0.00,,,0.00,VWS V14.01,2013-04-22 09:35:00,
2013-04-22 05:40:00,34.0,28.2,30.63,ESE,111,0.0,0.0,79,0.00,,,0.00,VWS V14.01,2013-04-22 09:40:00,
2013-04-22 05:45:00,34.0,28.2,30.62,ESE,111,0.0,0.0,79,0.00,,,0.00,VWS V14.01,2013-04-22 09:45:00,
2013-04-22 05:50:00,33.9,28.1,30.62,ESE,111,0.0,0.0,79,0.00,,,0.00,VWS V14.01,2013-04-22 09:50:00,
2013-04-22 05:55:00,33.9,28.1,30.62,ESE,111,0.0,0.0,79,0.00,,,0.00,VWS V14.01,2013-04-22 09:55:00,
2013-04-22 06:00:00,33.7,27.9,30.62,ESE,111,0.0,0.0,79,0.00,,,0.00,VWS V14.01,2013-04-22 10:00:00,
2013-04-22 06:05:00,33.6,27.8,30.62,ESE,111,0.0,0.0,79,0.00,,,0.00,VWS V14.01,2013-04-22 10:05:00,
2013-04-22 06:10:00,33.4,27.6,30.62,ESE,111,0.0,0.0,79,0.00,,,0.00,VWS V14.01,2013-04-22 10:10:00,
2013-04-22 06:15:00,33.4,27.6,30.63,ESE,111,0.0,0.0,79,0.00,,,0.00,VWS V14.01,2013-04-22 10:15:00,
2013-04-22 06:20:00,33.3,27.8,30.63,ESE,111,0.0,0.0,80,0.00,,,0.00,VWS V14.01,2013-04-22 10:20:00,
2013-04-22 06:25:00,33.1,27.6,30.63,ESE,111,0.0,0.0,80,0.00,,,0.00,VWS V14.01,2013-04-22 10:25:00,
2013-04-22 06:30:00,33.0,27.5,30.64,ESE,111,0.0,0.0,80,0.00,,,0.00,VWS V14.01,2013-04-22 10:30:00,
2013-04-22 06:35:00,33.0,27.8,30.64,ESE,111,0.0,0.0,81,0.00,,,0.00,VWS V14.01,2013-04-22 10:35:00,
2013-04-22 06:40:00,33.0,27.8,30.64,ESE,111,0.0,0.0,81,0.00,,,0.00,VWS V14.01,2013-04-22 10:40:00,
2013-04-22 06:45:00,33.1,28.2,30.64,ESE,111,0.0,0.0,82,0.00,,,0.00,VWS V14.01,2013-04-22 10:45:00,
2013-04-22 06:50:00,33.6,29.0,30.64,ESE,111,0.0,0.0,83,0.00,,,0.00,VWS V14.01,2013-04-22 10:50:00,
2013-04-22 06:55:00,34.3,29.4,30.64,ESE,111,0.0,0.0,82,0.00,,,0.00,VWS V14.01,2013-04-22 10:55:00,
2013-04-22 07:00:00,34.9,29.4,30.63,ESE,111,0.0,0.0,80,0.00,,,0.00,VWS V14.01,2013-04-22 11:00:00,
2013-04-22 07:05:00,35.4,29.5,30.63,ESE,111,0.0,0.0,79,0.00,,,0.00,VWS V14.01,2013-04-22 11:05:00,
2013-04-22 07:10:00,36.0,29.8,30.63,ESE,111,0.0,0.0,78,0.00,,,0.00,VWS V14.01,2013-04-22 11:10:00,
2013-04-22 07:15:00,36.7,29.9,30.64,ESE,111,0.0,0.0,76,0.00,,,0.00,VWS V14.01,2013-04-22 11:15:00,
2013-04-22 07:20:00,37.8,30.6,30.64,ESE,111,0.0,1.0,75,0.00,,,0.00,VWS V14.01,2013-04-22 11:20:00,
2013-04-22 07:25:00,38.7,30.5,30.64,ESE,111,1.0,2.0,72,0.00,,,0.00,VWS V14.01,2013-04-22 11:25:00,
2013-04-22 07:30:00,39.3,30.7,30.64,East,80,0.0,4.0,71,0.00,,,0.00,VWS V14.01,2013-04-22 11:30:00,
2013-04-22 07:31:00,39.3,30.7,30.64,East,80,0.0,0.0,71,0.00,,,0.00,VWS V14.01,2013-04-22 11:31:00,
2013-04-22 07:36:00,39.5,30.5,30.64,ENE,71,0.0,5.0,70,0.00,,,0.00,VWS V14.01,2013-04-22 11:36:00,
2013-04-22 07:41:00,40.0,30.3,30.64,NE,56,1.0,5.0,68,0.00,,,0.00,VWS V14.01,2013-04-22 11:41:00,
2013-04-22 07:45:00,40.3,30.6,30.64,NE,46,0.0,6.0,68,0.00,,,0.00,VWS V14.01,2013-04-22 11:45:00,
2013-04-22 07:46:00,40.3,30.6,30.64,NE,46,0.0,0.0,68,0.00,,,0.00,VWS V14.01,2013-04-22 11:46:00,
2013-04-22 07:51:00,40.5,30.4,30.64,NE,34,0.0,6.0,67,0.00,,,0.00,VWS V14.01,2013-04-22 11:51:00,
2013-04-22 07:56:00,40.7,30.2,30.64,NE,44,5.0,6.0,66,0.00,,,0.00,VWS V14.01,2013-04-22 11:56:00,
2013-04-22 08:00:00,41.0,30.9,30.64,NE,53,6.0,7.0,67,0.00,,,0.00,VWS V14.01,2013-04-22 12:00:00,
2013-04-22 08:01:00,41.0,30.9,30.64,NE,53,4.0,6.0,67,0.00,,,0.00,VWS V14.01,2013-04-22 12:01:00,
2013-04-22 08:06:00,41.5,31.0,30.64,NE,42,2.0,8.0,66,0.00,,,0.00,VWS V14.01,2013-04-22 12:06:00,
2013-04-22 08:11:00,41.8,30.5,30.64,NE,47,2.0,8.0,64,0.00,,,0.00,VWS V14.01,2013-04-22 12:11:00,
2013-04-22 08:15:00,42.1,29.6,30.63,NNE,14,10.0,12.0,61,0.00,,,0.00,VWS V14.01,2013-04-22 12:15:00,
2013-04-22 08:16:00,42.1,29.6,30.63,NE,55,8.0,10.0,61,0.00,,,0.00,VWS V14.01,2013-04-22 12:16:00,
2013-04-22 08:21:00,43.0,30.5,30.63,NE,49,6.0,11.0,61,0.00,,,0.00,VWS V14.01,2013-04-22 12:21:00,
2013-04-22 08:26:00,43.0,29.2,30.63,East,88,6.0,12.0,58,0.00,,,0.00,VWS V14.01,2013-04-22 12:26:00,
2013-04-22 08:30:00,43.4,27.9,30.64,ENE,63,4.0,13.0,54,0.00,,,0.00,VWS V14.01,2013-04-22 12:30:00,
2013-04-22 08:32:00,43.7,28.6,30.64,ESE,120,0.0,4.0,55,0.00,,,0.00,VWS V14.01,2013-04-22 12:32:00,
2013-04-22 08:37:00,43.5,27.1,30.64,SE,134,11.0,19.0,52,0.00,,,0.00,VWS V14.01,2013-04-22 12:37:00,
2013-04-22 08:42:00,43.7,27.2,30.64,East,98,12.0,19.0,52,0.00,,,0.00,VWS V14.01,2013-04-22 12:42:00,
2013-04-22 08:45:00,43.8,28.2,30.64,NE,48,6.0,19.0,54,0.00,,,0.00,VWS V14.01,2013-04-22 12:45:00,
2013-04-22 08:47:00,43.8,28.2,30.64,NNE,33,10.0,13.0,54,0.00,,,0.00,VWS V14.01,2013-04-22 12:47:00,
2013-04-22 08:52:00,44.0,27.5,30.64,East,101,8.0,20.0,52,0.00,,,0.00,VWS V14.01,2013-04-22 12:52:00,
2013-04-22 08:57:00,44.4,28.8,30.64,ENE,76,9.0,23.0,54,0.00,,,0.00,VWS V14.01,2013-04-22 12:57:00,
2013-04-22 09:00:00,44.7,28.6,30.64,East,92,2.0,23.0,53,0.00,,,0.00,VWS V14.01,2013-04-22 13:00:00,
2013-04-22 09:02:00,44.7,28.2,30.64,NE,49,7.0,11.0,52,0.00,,,0.00,VWS V14.01,2013-04-22 13:02:00,
2013-04-22 09:06:00,45.3,27.8,30.64,WSW,251,1.0,12.0,50,0.00,,,0.00,VWS V14.01,2013-04-22 13:06:00,
2013-04-22 09:11:00,45.3,27.8,30.64,NNE,31,8.0,15.0,50,0.00,,,0.00,VWS V14.01,2013-04-22 13:11:00,
2013-04-22 09:15:00,45.7,27.6,30.65,ESE,105,2.0,15.0,49,0.00,,,0.00,VWS V14.01,2013-04-22 13:15:00,
2013-04-22 09:16:00,45.7,28.1,30.65,East,81,3.0,6.0,50,0.00,,,0.00,VWS V14.01,2013-04-22 13:16:00,
2013-04-22 09:21:00,45.6,28.0,30.65,NE,55,2.0,12.0,50,0.00,,,0.00,VWS V14.01,2013-04-22 13:21:00,
2013-04-22 09:26:00,45.7,27.1,30.65,NE,40,0.0,15.0,48,0.00,,,0.00,VWS V14.01,2013-04-22 13:26:00,
2013-04-22 09:30:00,46.0,28.4,30.65,ENE,65,1.0,15.0,50,0.00,,,0.00,VWS V14.01,2013-04-22 13:30:00,
2013-04-22 09:31:00,46.3,29.6,30.65,ENE,74,10.0,10.0,52,0.00,,,0.00,VWS V14.01,2013-04-22 13:31:00,
2013-04-22 09:36:00,46.3,29.2,30.65,NE,48,6.0,11.0,51,0.00,,,0.00,VWS V14.01,2013-04-22 13:36:00,
2013-04-22 09:41:00,46.9,30.2,30.65,NE,38,1.0,11.0,52,0.00,,,0.00,VWS V14.01,2013-04-22 13:41:00,
2013-04-22 09:45:00,47.8,28.6,30.64,NNE,14,8.0,11.0,47,0.00,,,0.00,VWS V14.01,2013-04-22 13:45:00,
2013-04-22 09:46:00,47.3,29.6,30.64,NE,53,7.0,11.0,50,0.00,,,0.00,VWS V14.01,2013-04-22 13:46:00,
2013-04-22 09:51:00,46.6,29.0,30.64,NE,55,9.0,11.0,50,0.00,,,0.00,VWS V14.01,2013-04-22 13:51:00,
2013-04-22 09:56:00,46.9,29.2,30.64,ENE,67,5.0,11.0,50,0.00,,,0.00,VWS V14.01,2013-04-22 13:56:00,
2013-04-22 10:00:00,46.7,30.0,30.64,ENE,60,10.0,19.0,52,0.00,,,0.00,VWS V14.01,2013-04-22 14:00:00,
2013-04-22 10:01:00,46.7,29.5,30.64,NE,37,12.0,13.0,51,0.00,,,0.00,VWS V14.01,2013-04-22 14:01:00,
2013-04-22 10:06:00,46.6,29.5,30.64,NE,44,10.0,20.0,51,0.00,,,0.00,VWS V14.01,2013-04-22 14:06:00,
2013-04-22 10:11:00,45.9,28.3,30.64,NNE,32,4.0,21.0,50,0.00,,,0.00,VWS V14.01,2013-04-22 14:11:00,
2013-04-22 10:15:00,46.9,29.7,30.63,ENE,58,15.0,21.0,51,0.00,,,0.00,VWS V14.01,2013-04-22 14:15:00,
2013-04-22 10:16:00,46.7,27.6,30.63,NE,52,7.0,16.0,47,0.00,,,0.00,VWS V14.01,2013-04-22 14:16:00,
2013-04-22 10:21:00,46.9,28.2,30.63,NE,38,11.0,16.0,48,0.00,,,0.00,VWS V14.01,2013-04-22 14:21:00,
2013-04-22 10:26:00,47.3,28.1,30.63,SE,135,9.0,16.0,47,0.00,,,0.00,VWS V14.01,2013-04-22 14:26:00,
2013-04-22 10:30:00,47.8,28.0,30.64,ESE,107,6.0,16.0,46,0.00,,,0.00,VWS V14.01,2013-04-22 14:30:00,
2013-04-22 10:31:00,47.8,28.0,30.64,SSE,163,6.0,8.0,46,0.00,,,0.00,VWS V14.01,2013-04-22 14:31:00,
2013-04-22 10:36:00,47.5,28.8,30.64,ENE,61,6.0,15.0,48,0.00,,,0.00,VWS V14.01,2013-04-22 14:36:00,
2013-04-22 10:43:00,47.6,30.4,30.64,NNE,25,4.0,18.0,51,0.00,,,0.00,VWS V14.01,2013-04-22 14:43:00,
2013-04-22 10:48:00,47.6,28.4,30.63,NE,44,12.0,18.0,47,0.00,,,0.00,VWS V14.01,2013-04-22 14:48:00,
2013-04-22 10:53:00,47.5,28.3,30.63,East,92,7.0,18.0,47,0.00,,,0.00,VWS V14.01,2013-04-22 14:53:00,
2013-04-22 10:58:00,48.2,28.4,30.63,NE,47,10.0,18.0,46,0.00,,,0.00,VWS V14.01,2013-04-22 14:58:00,
2013-04-22 11:00:00,47.9,28.1,30.63,SE,132,4.0,18.0,46,0.00,,,0.00,VWS V14.01,2013-04-22 15:00:00,
2013-04-22 11:03:00,48.7,29.4,30.63,NE,53,9.0,11.0,47,0.00,,,0.00,VWS V14.01,2013-04-22 15:03:00,
2013-04-22 11:08:00,48.8,30.0,30.63,NNE,17,7.0,12.0,48,0.00,,,0.00,VWS V14.01,2013-04-22 15:08:00,
2013-04-22 11:13:00,49.6,30.2,30.63,NE,36,0.0,12.0,47,0.00,,,0.00,VWS V14.01,2013-04-22 15:13:00,
2013-04-22 11:15:00,49.4,30.0,30.62,ENE,63,6.0,13.0,47,0.00,,,0.00,VWS V14.01,2013-04-22 15:15:00,
2013-04-22 11:18:00,49.6,29.7,30.62,ENE,76,11.0,11.0,46,0.00,,,0.00,VWS V14.01,2013-04-22 15:18:00,
2013-04-22 11:23:00,49.6,30.7,30.62,NE,43,8.0,19.0,48,0.00,,,0.00,VWS V14.01,2013-04-22 15:23:00,
2013-04-22 11:28:00,49.4,29.0,30.62,ENE,69,7.0,19.0,45,0.00,,,0.00,VWS V14.01,2013-04-22 15:28:00,
2013-04-22 11:30:00,49.0,29.7,30.62,NE,44,12.0,19.0,47,0.00,,,0.00,VWS V14.01,2013-04-22 15:30:00,
2013-04-22 11:33:00,48.8,29.5,30.62,East,79,0.0,12.0,47,0.00,,,0.00,VWS V14.01,2013-04-22 15:33:00,
2013-04-22 11:38:00,48.8,31.0,30.62,ENE,57,9.0,21.0,50,0.00,,,0.00,VWS V14.01,2013-04-22 15:38:00,
2013-04-22 11:43:00,49.3,29.4,30.62,North,11,0.0,21.0,46,0.00,,,0.00,VWS V14.01,2013-04-22 15:43:00,
2013-04-22 11:45:00,49.1,29.8,30.61,NNE,31,11.0,21.0,47,0.00,,,0.00,VWS V14.01,2013-04-22 15:45:00,
2013-04-22 11:48:00,49.3,31.5,30.61,ENE,57,7.0,14.0,50,0.00,,,0.00,VWS V14.01,2013-04-22 15:48:00,
2013-04-22 11:53:00,49.3,30.5,30.61,SE,144,4.0,14.0,48,0.00,,,0.00,VWS V14.01,2013-04-22 15:53:00,
2013-04-22 11:58:00,50.7,31.7,30.61,NE,49,6.0,16.0,48,0.00,,,0.00,VWS V14.01,2013-04-22 15:58:00,
2013-04-22 12:00:00,49.4,30.5,30.61,NE,48,10.0,16.0,48,0.00,,,0.00,VWS V14.01,2013-04-22 16:00:00,
2013-04-22 12:03:00,49.4,30.0,30.61,ENE,72,13.0,16.0,47,0.00,,,0.00,VWS V14.01,2013-04-22 16:03:00,
2013-04-22 12:08:00,48.4,29.1,30.61,NNE,23,8.0,16.0,47,0.00,,,0.00,VWS V14.01,2013-04-22 16:08:00,
2013-04-22 12:13:00,48.8,31.5,30.61,North,9,9.0,16.0,51,0.00,,,0.00,VWS V14.01,2013-04-22 16:13:00,
2013-04-22 12:15:00,49.1,30.8,30.61,ENE,66,9.0,18.0,49,0.00,,,0.00,VWS V14.01,2013-04-22 16:15:00,
2013-04-22 12:18:00,49.6,31.2,30.61,ENE,63,0.0,9.0,49,0.00,,,0.00,VWS V14.01,2013-04-22 16:18:00,
2013-04-22 12:23:00,49.3,31.5,30.61,NE,54,7.0,12.0,50,0.00,,,0.00,VWS V14.01,2013-04-22 16:23:00,
2013-04-22 12:28:00,51.0,31.5,30.61,SSW,198,2.0,12.0,47,0.00,,,0.00,VWS V14.01,2013-04-22 16:28:00,
2013-04-22 12:30:00,50.6,31.6,30.60,ENE,63,8.0,16.0,48,0.00,,,0.00,VWS V14.01,2013-04-22 16:30:00,
2013-04-22 12:33:00,49.7,29.2,30.60,NE,50,9.0,16.0,45,0.00,,,0.00,VWS V14.01,2013-04-22 16:33:00,
2013-04-22 12:38:00,49.0,29.1,30.60,NE,42,8.0,18.0,46,0.00,,,0.00,VWS V14.01,2013-04-22 16:38:00,
2013-04-22 12:43:00,49.3,29.4,30.60,East,80,6.0,18.0,46,0.00,,,0.00,VWS V14.01,2013-04-22 16:43:00,
2013-04-22 12:45:00,49.3,29.9,30.60,East,92,0.0,18.0,47,0.00,,,0.00,VWS V14.01,2013-04-22 16:45:00,
2013-04-22 12:48:00,49.1,30.8,30.60,NE,53,9.0,12.0,49,0.00,,,0.00,VWS V14.01,2013-04-22 16:48:00,
2013-04-22 12:53:00,49.6,30.2,30.60,NE,45,10.0,12.0,47,0.00,,,0.00,VWS V14.01,2013-04-22 16:53:00,
2013-04-22 12:58:00,49.6,29.1,30.60,NE,47,8.0,15.0,45,0.00,,,0.00,VWS V14.01,2013-04-22 16:58:00,
2013-04-22 13:00:00,50.0,30.0,30.59,East,92,7.0,15.0,46,0.00,,,0.00,VWS V14.01,2013-04-22 17:00:00,
2013-04-22 13:03:00,51.0,32.0,30.59,NNE,20,0.0,10.0,48,0.00,,,0.00,VWS V14.01,2013-04-22 17:03:00,
2013-04-22 13:08:00,51.6,31.0,30.59,NE,38,7.0,12.0,45,0.00,,,0.00,VWS V14.01,2013-04-22 17:08:00,
2013-04-22 13:13:00,50.9,31.4,30.59,NNE,31,11.0,15.0,47,0.00,,,0.00,VWS V14.01,2013-04-22 17:13:00,
2013-04-22 13:15:00,50.3,30.3,30.60,NE,49,5.0,15.0,46,0.00,,,0.00,VWS V14.01,2013-04-22 17:15:00,
2013-04-22 13:18:00,50.9,28.6,30.60,SSW,198,0.0,9.0,42,0.00,,,0.00,VWS V14.01,2013-04-22 17:18:00,
2013-04-22 13:23:00,50.3,29.2,30.60,NNE,30,11.0,12.0,44,0.00,,,0.00,VWS V14.01,2013-04-22 17:23:00,
2013-04-22 13:28:00,50.1,30.7,30.60,East,88,11.0,22.0,47,0.00,,,0.00,VWS V14.01,2013-04-22 17:28:00,
2013-04-22 13:30:00,50.9,29.8,30.59,ENE,75,6.0,22.0,44,0.00,,,0.00,VWS V14.01,2013-04-22 17:30:00,
2013-04-22 13:33:00,51.2,30.0,30.59,NE,54,8.0,15.0,44,0.00,,,0.00,VWS V14.01,2013-04-22 17:33:00,
2013-04-22 13:38:00,51.2,30.6,30.59,NE,55,7.0,15.0,45,0.00,,,0.00,VWS V14.01,2013-04-22 17:38:00,
2013-04-22 13:43:00,51.8,31.7,30.59,North,355,0.0,15.0,46,0.00,,,0.00,VWS V14.01,2013-04-22 17:43:00,
2013-04-22 13:45:00,52.4,30.0,30.58,South,177,5.0,15.0,42,0.00,,,0.00,VWS V14.01,2013-04-22 17:45:00,
2013-04-22 13:48:00,52.7,30.3,30.58,SSW,198,0.0,9.0,42,0.00,,,0.00,VWS V14.01,2013-04-22 17:48:00,
2013-04-22 13:52:00,53.3,30.2,30.58,South,191,9.0,12.0,41,0.00,,,0.00,VWS V14.01,2013-04-22 17:52:00,
2013-04-22 13:57:00,53.5,29.2,30.58,ESE,107,3.0,12.0,39,0.00,,,0.00,VWS V14.01,2013-04-22 17:57:00,
2013-04-22 14:00:00,53.1,28.2,30.57,SW,219,6.0,12.0,38,0.00,,,0.00,VWS V14.01,2013-04-22 18:00:00,
2013-04-22 14:02:00,53.0,28.1,30.57,SSW,203,0.0,10.0,38,0.00,,,0.00,VWS V14.01,2013-04-22 18:02:00,
2013-04-22 14:07:00,51.6,29.9,30.57,ENE,57,12.0,14.0,43,0.00,,,0.00,VWS V14.01,2013-04-22 18:07:00,
2013-04-22 14:12:00,51.0,31.0,30.57,NE,55,7.0,14.0,46,0.00,,,0.00,VWS V14.01,2013-04-22 18:12:00,
2013-04-22 14:15:00,51.0,29.9,30.56,NE,37,13.0,19.0,44,0.00,,,0.00,VWS V14.01,2013-04-22 18:15:00,
2013-04-22 14:17:00,50.9,30.3,30.56,ENE,69,0.0,14.0,45,0.00,,,0.00,VWS V14.01,2013-04-22 18:17:00,
2013-04-22 14:22:00,53.3,33.1,30.56,NE,41,8.0,14.0,46,0.00,,,0.00,VWS V14.01,2013-04-22 18:22:00,
2013-04-22 14:27:00,51.8,32.8,30.56,ENE,60,10.0,20.0,48,0.00,,,0.00,VWS V14.01,2013-04-22 18:27:00,
2013-04-22 14:30:00,51.2,32.7,30.56,NE,47,7.0,20.0,49,0.00,,,0.00,VWS V14.01,2013-04-22 18:30:00,
2013-04-22 14:32:00,51.2,32.7,30.56,NE,54,7.0,14.0,49,0.00,,,0.00,VWS V14.01,2013-04-22 18:32:00,
2013-04-22 14:37:00,50.9,29.8,30.56,NE,55,8.0,14.0,44,0.00,,,0.00,VWS V14.01,2013-04-22 18:37:00,
2013-04-22 14:42:00,52.1,30.3,30.56,ENE,64,8.0,14.0,43,0.00,,,0.00,VWS V14.01,2013-04-22 18:42:00,
2013-04-22 14:45:00,52.2,31.5,30.55,SE,128,3.0,15.0,45,0.00,,,0.00,VWS V14.01,2013-04-22 18:45:00,
2013-04-22 14:47:00,52.5,30.1,30.55,ENE,63,9.0,14.0,42,0.00,,,0.00,VWS V14.01,2013-04-22 18:47:00,
2013-04-22 14:52:00,52.1,30.3,30.55,ESE,120,7.0,14.0,43,0.00,,,0.00,VWS V14.01,2013-04-22 18:52:00,
2013-04-22 14:57:00,53.8,30.1,30.55,NE,34,3.0,14.0,40,0.00,,,0.00,VWS V14.01,2013-04-22 18:57:00,
2013-04-22 15:00:00,54.0,31.5,30.54,ENE,68,8.0,14.0,42,0.00,,,0.00,VWS V14.01,2013-04-22 19:00:00,
2013-04-22 15:02:00,53.4,29.7,30.54,NNE,23,13.0,15.0,40,0.00,,,0.00,VWS V14.01,2013-04-22 19:02:00,
2013-04-22 15:07:00,53.4,31.5,30.54,SE,138,7.0,18.0,43,0.00,,,0.00,VWS V14.01,2013-04-22 19:07:00,
2013-04-22 15:12:00,52.7,29.7,30.54,ENE,60,7.0,18.0,41,0.00,,,0.00,VWS V14.01,2013-04-22 19:12:00,
2013-04-22 15:15:00,53.7,30.6,30.53,East,89,5.0,18.0,41,0.00,,,0.00,VWS V14.01,2013-04-22 19:15:00,
2013-04-22 15:17:00,53.5,30.4,30.53,ENE,61,0.0,9.0,41,0.00,,,0.00,VWS V14.01,2013-04-22 19:17:00,
2013-04-22 15:22:00,54.4,30.6,30.53,WNW,284,0.0,11.0,40,0.00,,,0.00,VWS V14.01,2013-04-22 19:22:00,
2013-04-22 15:27:00,53.4,31.5,30.53,East,88,8.0,12.0,43,0.00,,,0.00,VWS V14.01,2013-04-22 19:27:00,
2013-04-22 15:30:00,53.3,30.8,30.53,East,81,9.0,12.0,42,0.00,,,0.00,VWS V14.01,2013-04-22 19:30:00,
2013-04-22 15:32:00,53.1,30.0,30.53,ENE,71,0.0,16.0,41,0.00,,,0.00,VWS V14.01,2013-04-22 19:32:00,
2013-04-22 15:37:00,53.0,32.2,30.53,East,81,11.0,16.0,45,0.00,,,0.00,VWS V14.01,2013-04-22 19:37:00,
2013-04-22 15:42:00,52.7,30.3,30.53,ENE,57,7.0,16.0,42,0.00,,,0.00,VWS V14.01,2013-04-22 19:42:00,
2013-04-22 15:45:00,53.1,30.6,30.53,NNE,29,1.0,16.0,42,0.00,,,0.00,VWS V14.01,2013-04-22 19:45:00,
2013-04-22 15:47:00,53.5,31.0,30.53,NE,50,0.0,2.0,42,0.00,,,0.00,VWS V14.01,2013-04-22 19:47:00,
2013-04-22 15:52:00,53.7,31.2,30.53,NE,54,14.0,20.0,42,0.00,,,0.00,VWS V14.01,2013-04-22 19:52:00,
2013-04-22 15:57:00,53.0,31.7,30.53,ENE,65,0.0,22.0,44,0.00,,,0.00,VWS V14.01,2013-04-22 19:57:00,
2013-04-22 16:00:00,53.0,32.2,30.52,NE,35,1.0,22.0,45,0.00,,,0.00,VWS V14.01,2013-04-22 20:00:00,
2013-04-22 16:02:00,53.1,30.6,30.52,ESE,111,6.0,15.0,42,0.00,,,0.00,VWS V14.01,2013-04-22 20:02:00,
2013-04-22 16:07:00,52.5,29.5,30.52,ENE,65,9.0,15.0,41,0.00,,,0.00,VWS V14.01,2013-04-22 20:07:00,
2013-04-22 16:12:00,52.1,30.3,30.52,East,90,0.0,15.0,43,0.00,,,0.00,VWS V14.01,2013-04-22 20:12:00,
2013-04-22 16:15:00,53.3,32.5,30.52,WSW,240,5.0,15.0,45,0.00,,,0.00,VWS V14.01,2013-04-22 20:15:00,
2013-04-22 16:17:00,53.1,30.6,30.52,SSW,209,15.0,16.0,42,0.00,,,0.00,VWS V14.01,2013-04-22 20:17:00,
2013-04-22 16:22:00,53.3,31.4,30.52,SW,215,0.0,16.0,43,0.00,,,0.00,VWS V14.01,2013-04-22 20:22:00,
2013-04-22 16:27:00,53.0,30.5,30.52,SE,141,5.0,16.0,42,0.00,,,0.00,VWS V14.01,2013-04-22 20:27:00,
2013-04-22 16:30:00,52.5,30.7,30.52,ESE,117,5.0,16.0,43,0.00,,,0.00,VWS V14.01,2013-04-22 20:30:00,
2013-04-22 16:32:00,52.5,31.8,30.52,ENE,57,9.0,11.0,45,0.00,,,0.00,VWS V14.01,2013-04-22 20:32:00,
2013-04-22 16:37:00,52.1,30.3,30.52,NE,55,12.0,15.0,43,0.00,,,0.00,VWS V14.01,2013-04-22 20:37:00,
2013-04-22 16:42:00,52.2,31.0,30.52,SSW,192,5.0,15.0,44,0.00,,,0.00,VWS V14.01,2013-04-22 20:42:00,
2013-04-22 16:45:00,52.7,30.9,30.52,SW,232,2.0,15.0,43,0.00,,,0.00,VWS V14.01,2013-04-22 20:45:00,
2013-04-22 16:47:00,53.0,30.5,30.52,ESE,105,0.0,4.0,42,0.00,,,0.00,VWS V14.01,2013-04-22 20:47:00,
2013-04-22 16:52:00,52.8,31.5,30.52,NE,37,4.0,11.0,44,0.00,,,0.00,VWS V14.01,2013-04-22 20:52:00,
2013-04-22 16:57:00,53.1,32.3,30.52,NE,43,5.0,13.0,45,0.00,,,0.00,VWS V14.01,2013-04-22 20:57:00,
2013-04-22 17:00:00,52.1,32.0,30.51,East,92,9.0,13.0,46,0.00,,,0.00,VWS V14.01,2013-04-22 21:00:00,
2013-04-22 17:02:00,51.8,31.1,30.51,ENE,71,0.0,9.0,45,0.00,,,0.00,VWS V14.01,2013-04-22 21:02:00,
2013-04-22 17:07:00,52.5,33.4,30.51,SSE,161,7.0,12.0,48,0.00,,,0.00,VWS V14.01,2013-04-22 21:07:00,
2013-04-22 17:12:00,51.9,32.8,30.51,ENE,60,12.0,14.0,48,0.00,,,0.00,VWS V14.01,2013-04-22 21:12:00,
2013-04-22 17:15:00,51.2,32.7,30.52,ENE,69,6.0,14.0,49,0.00,,,0.00,VWS V14.01,2013-04-22 21:15:00,
2013-04-22 17:17:00,50.9,32.4,30.52,ESE,110,6.0,9.0,49,0.00,,,0.00,VWS V14.01,2013-04-22 21:17:00,
2013-04-22 17:22:00,50.7,32.8,30.52,SW,217,1.0,9.0,50,0.00,,,0.00,VWS V14.01,2013-04-22 21:22:00,
2013-04-22 17:27:00,51.3,32.3,30.52,South,183,4.0,12.0,48,0.00,,,0.00,VWS V14.01,2013-04-22 21:27:00,
2013-04-22 17:30:00,51.6,32.6,30.52,SW,233,5.0,12.0,48,0.00,,,0.00,VWS V14.01,2013-04-22 21:30:00,
2013-04-22 17:32:00,51.6,33.1,30.52,East,81,0.0,7.0,49,0.00,,,0.00,VWS V14.01,2013-04-22 21:32:00,
2013-04-22 17:37:00,51.2,32.7,30.52,ENE,69,5.0,11.0,49,0.00,,,0.00,VWS V14.01,2013-04-22 21:37:00,
2013-04-22 17:42:00,51.5,33.0,30.52,SSE,168,1.0,11.0,49,0.00,,,0.00,VWS V14.01,2013-04-22 21:42:00,
2013-04-22 17:45:00,51.6,32.0,30.51,ENE,69,7.0,12.0,47,0.00,,,0.00,VWS V14.01,2013-04-22 21:45:00,
2013-04-22 17:47:00,51.8,32.2,30.51,East,101,0.0,10.0,47,0.00,,,0.00,VWS V14.01,2013-04-22 21:47:00,
2013-04-22 17:52:00,51.8,31.1,30.51,East,87,3.0,10.0,45,0.00,,,0.00,VWS V14.01,2013-04-22 21:52:00,
2013-04-22 17:57:00,51.6,30.4,30.51,East,86,10.0,10.0,44,0.00,,,0.00,VWS V14.01,2013-04-22 21:57:00,
2013-04-22 18:00:00,51.6,31.5,30.51,ENE,67,6.0,10.0,46,0.00,,,0.00,VWS V14.01,2013-04-22 22:00:00,
2013-04-22 18:02:00,51.6,31.5,30.51,SE,136,4.0,10.0,46,0.00,,,0.00,VWS V14.01,2013-04-22 22:02:00,
2013-04-22 18:07:00,51.8,34.3,30.51,East,94,0.0,10.0,51,0.00,,,0.00,VWS V14.01,2013-04-22 22:07:00,
2013-04-22 18:12:00,51.8,31.1,30.51,SSW,211,0.0,10.0,45,0.00,,,0.00,VWS V14.01,2013-04-22 22:12:00,
2013-04-22 18:15:00,51.9,31.2,30.51,NE,55,6.0,10.0,45,0.00,,,0.00,VWS V14.01,2013-04-22 22:15:00,
2013-04-22 18:17:00,51.9,31.8,30.51,NE,55,5.0,8.0,46,0.00,,,0.00,VWS V14.01,2013-04-22 22:17:00,
2013-04-22 18:22:00,51.8,31.1,30.51,ENE,59,0.0,13.0,45,0.00,,,0.00,VWS V14.01,2013-04-22 22:22:00,
2013-04-22 18:27:00,51.8,29.5,30.51,East,86,6.0,13.0,42,0.00,,,0.00,VWS V14.01,2013-04-22 22:27:00,
2013-04-22 18:30:00,51.8,30.0,30.51,ENE,63,0.0,13.0,43,0.00,,,0.00,VWS V14.01,2013-04-22 22:30:00,
2013-04-22 18:32:00,51.8,30.0,30.51,ENE,61,0.0,0.0,43,0.00,,,0.00,VWS V14.01,2013-04-22 22:32:00,
2013-04-22 18:37:00,52.1,30.9,30.51,NNE,20,8.0,8.0,44,0.00,,,0.00,VWS V14.01,2013-04-22 22:37:00,
2013-04-22 18:42:00,51.6,30.4,30.51,ENE,67,5.0,11.0,44,0.00,,,0.00,VWS V14.01,2013-04-22 22:42:00,
2013-04-22 18:45:00,51.3,30.1,30.50,WSW,251,0.0,11.0,44,0.00,,,0.00,VWS V14.01,2013-04-22 22:45:00,
2013-04-22 18:47:00,51.3,30.1,30.50,South,173,0.0,6.0,44,0.00,,,0.00,VWS V14.01,2013-04-22 22:47:00,
2013-04-22 18:52:00,51.2,30.6,30.50,ENE,73,0.0,9.0,45,0.00,,,0.00,VWS V14.01,2013-04-22 22:52:00,
2013-04-22 18:57:00,51.0,31.0,30.50,ENE,74,0.0,9.0,46,0.00,,,0.00,VWS V14.01,2013-04-22 22:57:00,
2013-04-22 19:00:00,50.7,30.7,30.49,ESE,115,5.0,9.0,46,0.00,,,0.00,VWS V14.01,2013-04-22 23:00:00,
2013-04-22 19:02:00,50.6,30.6,30.49,SE,129,0.0,5.0,46,0.00,,,0.00,VWS V14.01,2013-04-22 23:02:00,
2013-04-22 19:07:00,50.3,30.9,30.49,East,95,0.0,6.0,47,0.00,,,0.00,VWS V14.01,2013-04-22 23:07:00,
2013-04-22 19:12:00,50.0,31.1,30.49,East,97,0.0,6.0,48,0.00,,,0.00,VWS V14.01,2013-04-22 23:12:00,
2013-04-22 19:15:00,50.0,30.6,30.49,East,98,0.0,8.0,47,0.00,,,0.00,VWS V14.01,2013-04-22 23:15:00,
2013-04-22 19:17:00,49.8,30.4,30.49,East,80,1.0,8.0,47,0.00,,,0.00,VWS V14.01,2013-04-22 23:17:00,
2013-04-22 19:22:00,49.7,30.3,30.49,SSW,201,5.0,8.0,47,0.00,,,0.00,VWS V14.01,2013-04-22 23:22:00,
2013-04-22 19:27:00,49.4,30.5,30.49,ENE,69,2.0,8.0,48,0.00,,,0.00,VWS V14.01,2013-04-22 23:27:00,
2013-04-22 19:30:00,49.3,29.9,30.49,SE,133,7.0,8.0,47,0.00,,,0.00,VWS V14.01,2013-04-22 23:30:00,
2013-04-22 19:32:00,49.3,29.4,30.49,South,182,5.0,8.0,46,0.00,,,0.00,VWS V14.01,2013-04-22 23:32:00,
2013-04-22 19:37:00,49.0,29.7,30.49,SSW,192,0.0,8.0,47,0.00,,,0.00,VWS V14.01,2013-04-22 23:37:00,
2013-04-22 19:42:00,48.8,29.0,30.49,South,188,0.0,8.0,46,0.00,,,0.00,VWS V14.01,2013-04-22 23:42:00,
2013-04-22 19:45:00,48.5,28.1,30.49,ESE,113,7.0,8.0,45,0.00,,,0.00,VWS V14.01,2013-04-22 23:45:00,
2013-04-22 19:47:00,48.5,28.1,30.49,ESE,105,0.0,7.0,45,0.00,,,0.00,VWS V14.01,2013-04-22 23:47:00,
2013-04-22 19:52:00,48.2,27.9,30.49,East,90,0.0,9.0,45,0.00,,,0.00,VWS V14.01,2013-04-22 23:52:00,
2013-04-22 19:57:00,47.9,28.1,30.49,NE,55,5.0,9.0,46,0.00,,,0.00,VWS V14.01,2013-04-22 23:57:00,
2013-04-22 20:00:00,47.6,27.9,30.50,ESE,109,0.0,9.0,46,0.00,,,0.00,VWS V14.01,2013-04-23 00:00:00,
2013-04-22 20:02:00,47.5,27.8,30.50,ESE,109,0.0,0.0,46,0.00,,,0.00,VWS V14.01,2013-04-23 00:02:00,
2013-04-22 20:07:00,47.3,27.6,30.50,ESE,113,3.0,7.0,46,0.00,,,0.00,VWS V14.01,2013-04-23 00:07:00,
2013-04-22 20:12:00,47.0,27.3,30.50,East,97,0.0,8.0,46,0.00,,,0.00,VWS V14.01,2013-04-23 00:12:00,
2013-04-22 20:15:00,46.9,27.7,30.50,East,90,0.0,8.0,47,0.00,,,0.00,VWS V14.01,2013-04-23 00:15:00,
2013-04-22 20:17:00,46.9,27.7,30.50,East,90,0.0,1.0,47,0.00,,,0.00,VWS V14.01,2013-04-23 00:17:00,
2013-04-22 20:22:00,46.6,27.5,30.50,East,88,0.0,1.0,47,0.00,,,0.00,VWS V14.01,2013-04-23 00:22:00,
2013-04-22 20:27:00,46.6,28.0,30.50,ENE,71,1.0,4.0,48,0.00,,,0.00,VWS V14.01,2013-04-23 00:27:00,
2013-04-22 20:30:00,46.3,27.7,30.50,SE,130,0.0,7.0,48,0.00,,,0.00,VWS V14.01,2013-04-23 00:30:00,
2013-04-22 20:32:00,46.3,27.7,30.50,SE,130,2.0,2.0,48,0.00,,,0.00,VWS V14.01,2013-04-23 00:32:00,
2013-04-22 20:36:00,46.2,28.6,30.50,SE,125,0.0,4.0,50,0.00,,,0.00,VWS V14.01,2013-04-23 00:36:00,
2013-04-22 20:41:00,46.0,28.4,30.50,ENE,64,1.0,5.0,50,0.00,,,0.00,VWS V14.01,2013-04-23 00:41:00,
2013-04-22 20:45:00,45.9,28.3,30.50,ENE,64,0.0,5.0,50,0.00,,,0.00,VWS V14.01,2013-04-23 00:45:00,
2013-04-22 20:46:00,45.9,28.3,30.50,ENE,64,0.0,0.0,50,0.00,,,0.00,VWS V14.01,2013-04-23 00:46:00,
2013-04-22 20:51:00,45.7,29.1,30.50,NE,55,0.0,5.0,52,0.00,,,0.00,VWS V14.01,2013-04-23 00:51:00,
2013-04-22 20:56:00,45.4,29.3,30.50,NE,55,0.0,5.0,53,0.00,,,0.00,VWS V14.01,2013-04-23 00:56:00,
2013-04-22 21:00:00,45.4,28.8,30.50,NE,55,0.0,5.0,52,0.00,,,0.00,VWS V14.01,2013-04-23 01:00:00,
2013-04-22 21:01:00,45.3,28.7,30.50,NE,55,0.0,1.0,52,0.00,,,0.00,VWS V14.01,2013-04-23 01:01:00,
2013-04-22 21:06:00,45.1,29.5,30.50,NE,55,0.0,1.0,54,0.00,,,0.00,VWS V14.01,2013-04-23 01:06:00,
2013-04-22 21:11:00,45.0,29.8,30.50,NE,55,0.0,1.0,55,0.00,,,0.00,VWS V14.01,2013-04-23 01:11:00,
2013-04-22 21:15:00,44.8,29.6,30.50,NE,55,0.0,1.0,55,0.00,,,0.00,VWS V14.01,2013-04-23 01:15:00,
2013-04-22 21:16:00,44.8,29.2,30.50,NE,55,0.0,0.0,54,0.00,,,0.00,VWS V14.01,2013-04-23 01:16:00,
2013-04-22 21:21:00,44.7,29.5,30.50,NE,55,0.0,0.0,55,0.00,,,0.00,VWS V14.01,2013-04-23 01:21:00,
2013-04-22 21:26:00,44.4,29.7,30.50,NE,55,0.0,0.0,56,0.00,,,0.00,VWS V14.01,2013-04-23 01:26:00,
2013-04-22 21:30:00,44.3,31.3,30.50,NE,55,0.0,0.0,60,0.00,,,0.00,VWS V14.01,2013-04-23 01:30:00,
2013-04-22 21:32:00,44.3,31.3,30.50,NE,55,0.0,0.0,60,0.00,,,0.00,VWS V14.01,2013-04-23 01:32:00,
2013-04-22 21:36:00,43.8,30.4,30.50,NE,55,0.0,0.0,59,0.00,,,0.00,VWS V14.01,2013-04-23 01:36:00,
2013-04-22 21:41:00,43.5,30.1,30.50,NE,55,0.0,0.0,59,0.00,,,0.00,VWS V14.01,2013-04-23 01:41:00,
2013-04-22 21:45:00,43.4,30.5,30.51,NE,55,0.0,0.0,60,0.00,,,0.00,VWS V14.01,2013-04-23 01:45:00,
2013-04-22 21:46:00,43.3,30.4,30.51,NE,55,0.0,0.0,60,0.00,,,0.00,VWS V14.01,2013-04-23 01:46:00,
2013-04-22 21:51:00,43.0,31.3,30.51,NE,55,0.0,0.0,63,0.00,,,0.00,VWS V14.01,2013-04-23 01:51:00,
2013-04-22 21:56:00,42.7,31.0,30.51,NE,55,0.0,0.0,63,0.00,,,0.00,VWS V14.01,2013-04-23 01:56:00,
2013-04-22 22:00:00,42.4,31.1,30.51,NE,55,0.0,0.0,64,0.00,,,0.00,VWS V14.01,2013-04-23 02:00:00,
2013-04-22 22:01:00,42.3,31.0,30.51,NE,55,0.0,0.0,64,0.00,,,0.00,VWS V14.01,2013-04-23 02:01:00,
2013-04-22 22:06:00,42.0,30.7,30.51,NE,55,0.0,3.0,64,0.00,,,0.00,VWS V14.01,2013-04-23 02:06:00,
2013-04-22 22:11:00,41.7,30.8,30.51,NE,55,0.0,3.0,65,0.00,,,0.00,VWS V14.01,2013-04-23 02:11:00,
2013-04-22 22:15:00,41.4,30.9,30.51,NE,55,0.0,3.0,66,0.00,,,0.00,VWS V14.01,2013-04-23 02:15:00,
2013-04-22 22:16:00,41.4,30.9,30.51,NE,55,0.0,0.0,66,0.00,,,0.00,VWS V14.01,2013-04-23 02:16:00,
2013-04-22 22:21:00,41.3,30.8,30.51,NE,55,0.0,0.0,66,0.00,,,0.00,VWS V14.01,2013-04-23 02:21:00,
2013-04-22 22:26:00,41.0,31.3,30.51,NE,55,0.0,0.0,68,0.00,,,0.00,VWS V14.01,2013-04-23 02:26:00,
2013-04-22 22:30:00,40.7,31.0,30.50,NE,55,0.0,0.0,68,0.00,,,0.00,VWS V14.01,2013-04-23 02:30:00,
2013-04-22 22:31:00,40.7,31.3,30.50,NE,55,0.0,0.0,69,0.00,,,0.00,VWS V14.01,2013-04-23 02:31:00,
2013-04-22 22:36:00,40.4,31.4,30.50,NE,55,0.0,0.0,70,0.00,,,0.00,VWS V14.01,2013-04-23 02:36:00,
2013-04-22 22:41:00,40.1,31.5,30.50,NE,55,0.0,0.0,71,0.00,,,0.00,VWS V14.01,2013-04-23 02:41:00,
2013-04-22 22:45:00,39.8,31.5,30.50,NE,55,0.0,0.0,72,0.00,,,0.00,VWS V14.01,2013-04-23 02:45:00,
2013-04-22 22:46:00,39.8,31.5,30.50,NE,55,0.0,0.0,72,0.00,,,0.00,VWS V14.01,2013-04-23 02:46:00,
2013-04-22 22:51:00,39.7,31.4,30.50,NE,55,0.0,0.0,72,0.00,,,0.00,VWS V14.01,2013-04-23 02:51:00,
2013-04-22 22:56:00,39.5,30.9,30.50,NE,55,0.0,0.0,71,0.00,,,0.00,VWS V14.01,2013-04-23 02:56:00,
2013-04-22 23:00:00,39.5,30.9,30.50,NE,55,0.0,0.0,71,0.00,,,0.00,VWS V14.01,2013-04-23 03:00:00,
2013-04-22 23:01:00,39.5,30.9,30.50,NE,55,0.0,0.0,71,0.00,,,0.00,VWS V14.01,2013-04-23 03:01:00,
2013-04-22 23:06:00,39.4,31.1,30.50,NE,55,0.0,1.0,72,0.00,,,0.00,VWS V14.01,2013-04-23 03:06:00,
2013-04-22 23:11:00,39.4,31.5,30.50,NE,55,0.0,1.0,73,0.00,,,0.00,VWS V14.01,2013-04-23 03:11:00,
2013-04-22 23:15:00,39.4,31.5,30.50,ESE,117,1.0,4.0,73,0.00,,,0.00,VWS V14.01,2013-04-23 03:15:00,
2013-04-22 23:16:00,39.4,31.5,30.50,East,101,1.0,4.0,73,0.00,,,0.00,VWS V14.01,2013-04-23 03:16:00,
2013-04-22 23:21:00,39.7,32.1,30.50,ENE,72,2.0,5.0,74,0.00,,,0.00,VWS V14.01,2013-04-23 03:21:00,
2013-04-22 23:26:00,40.0,32.4,30.50,ENE,73,0.0,5.0,74,0.00,,,0.00,VWS V14.01,2013-04-23 03:26:00,
2013-04-22 23:30:00,40.3,32.7,30.49,ESE,121,2.0,6.0,74,0.00,,,0.00,VWS V14.01,2013-04-23 03:30:00,
2013-04-22 23:31:00,40.3,32.7,30.49,ESE,106,2.0,5.0,74,0.00,,,0.00,VWS V14.01,2013-04-23 03:31:00,
2013-04-22 23:36:00,40.5,32.9,30.49,ESE,106,0.0,5.0,74,0.00,,,0.00,VWS V14.01,2013-04-23 03:36:00,
2013-04-22 23:41:00,40.7,33.1,30.49,ENE,74,4.0,5.0,74,0.00,,,0.00,VWS V14.01,2013-04-23 03:41:00,
2013-04-22 23:45:00,41.0,33.4,30.49,East,80,1.0,7.0,74,0.00,,,0.00,VWS V14.01,2013-04-23 03:45:00,
2013-04-22 23:46:00,41.0,33.4,30.49,ESE,107,4.0,6.0,74,0.00,,,0.00,VWS V14.01,2013-04-23 03:46:00,
2013-04-22 23:51:00,41.1,33.5,30.49,East,90,0.0,6.0,74,0.00,,,0.00,VWS V14.01,2013-04-23 03:51:00,
2013-04-22 23:56:00,41.3,34.0,30.49,ENE,71,1.0,8.0,75,0.00,,,0.00,VWS V14.01,2013-04-23 03:56:00,